Location: Unspecified
(48.7670°N, 0.0000°E)
Time: 07:56:44
(UTC+00:00)

Altair - Pass Details

Date: 09 October 2020
Orbit: 1502 x 1682 km, 47.2° (Epoch: 20 October)

Event Time Altitude Azimuth Distance (km) Brightness Sun altitude
Rises 17:59:25 0° 289° (WNW) 4,925 11.7 -7.0°
Reaches altitude 10° 18:03:47 10° 273° (W) 3,944 11.4 -7.7°
Maximum altitude 18:10:10 19° 233° (SW) 3,266 10.0 -8.8°
Drops below altitude 10° 18:16:33 10° 193° (SSW) 3,922 9.8 -9.8°
Sets 18:20:55 0° 177° (S) 4,888 10.1 -10.6°
